Location: McFarlands Corners
(41.4117°N, 81.3382°W)
Time: 12:42:44
(UTC+00:00)

Courier 1B Rocket - Pass Details

Date: 18 February 2026
Orbit: 920 x 1201 km, 28.2° (Epoch: 10 March)

Event Time Altitude Azimuth Distance (km) Brightness Sun altitude
Rises 00:08:28 0° 219° (SW) 3,539 8.6 -13.1°
Reaches altitude 10° 00:12:04 10° 198° (SSW) 2,608 7.5 -13.8°
Maximum altitude 00:15:45 16° 162° (SSE) 2,212 6.7 -14.5°
Enters shadow 00:18:58 11° 129° (SE) 2,557 6.8 -15.1°
Drops below altitude 10° 00:19:31 10° 125° (SE) 2,668 - -15.2°
Sets 00:23:16 0° 105° (ESE) 3,662 - -15.9°
